Location: Capel Gartheli
(52.1833°N, 4.0667°W)
Time: 16:49:39
(UTC+00:00)

SL-16 R/B - Pass Details

Date: 18 February 2020
Orbit: 842 x 846 km, 71.0° (Epoch: 06 April)

Event Time Altitude Azimuth Distance (km) Brightness Sun altitude
Exits shadow 06:21:57 - 322° (NW) 3,228 4.8 -10.6°
Reaches altitude 10° 06:25:27 10° 348° (NNW) 2,478 4.5 -10.0°
Maximum altitude 06:27:45 12° 12° (NNE) 2,309 4.6 -9.7°
Drops below altitude 10° 06:30:04 10° 37° (NE) 2,477 5.0 -9.3°
Sets 06:34:15 0° 66° (ENE) 3,412 6.5 -8.7°
